Погода в Старом Крыму

Россия / Республика Крым     45°01′44″N   35°05′24″E
темп.,
°C
ветер,
м/с
пор.,
м/с
влажн.,
%
обл.,
%
осадки,
мм/ч
давл.,
гПа
погр.,
м
25 января, пн
пн2500:00+5ю349570 0.0 1013117
03:00+5ю349142 0.0 101275
06:00+5ю338619 0.0 101237
09:00+6ю34849 0.0 101284
12:00+10ююв397167 0.0 1012475
15:00+9ююв4107383 0.0 1009525
18:00+6юв1290100 0.0 100832
21:00+7ю31295100 1.1 1007728
26 января, вт
вт2600:00+8ююз71895100 3.3 10081294
03:00+6ююз6108883 4.2 1010304
06:00+4ю347368 0.0 101196
09:00+5ю488083 0.0 1013273
12:00+8ю41181100 0.0 1012562
15:00+10ю41172100 0.0 1010735
18:00+7ю3390100 0.0 101077
21:00+7ю3793100 0.1 1011236
27 января, ср
ср2700:00+7ю3791100 0.1 1010239
03:00+7ю3593100 0.4 1008104
06:00+8ююв3383100 0.0 100647
09:00+7ю4690100 0.0 1005212
12:00+10ююв4977100 0.0 1004547
15:00+10ю4572100 0.0 1002330
18:00+8ююв4680100 0.0 1002184
21:00+7ю3384100 0.0 100159
28 января, чт
чт2800:00+7ю1277100 0.0 100127
03:00+6ююв2284100 0.0 100025
06:00+6ююв2290100 0.0 99924
09:00+6зюз1191100 0.0 100022
12:00+7ссз1283100 0.1 1002314
15:00+7ююз2476100 1.1 1003412
18:00+5юв0285100 0.3 1004182
21:00+4вюв1286100 0.5 1006214
29 января, пт
пт2900:00+3ссв1189100 0.0 100747
03:00+3ссв1181100 0.0 1007171
06:00+2ссз1278100 0.0 1008124
09:00+2ююв2280100 0.0 1009151
12:00+4юз345690 0.0 10101023
15:00+4зюз235983 0.1 10101018
18:00+2зсз368285 0.4 1011546
21:000зсз398453 0.4 1012571